Capitol Logistics 3263


KMCO
Orlando International Airport
Orlando, Florida, US
KMIA
Miami International Airport
Miami, Florida, US

Activity Log

Date Flight Route Aircraft Duration
11/04/2019 CPX663 MLB ANNEY4 SF34 1h 02m
10/06/2019 CPX663 MLB ANNEY4 SF34 1h 04m
08/25/2019 CPX663 MLB ANNEY4 SF34 1h 03m

Route Details

Aircraft Information
Primary: Saab 340AF
Backup: Not Available
Route Data
Distance: 167nm
Sched. Duration: 1h 25m
Avg. Duration: 1h 03m (-22m)
Times Flown: 3
Recm'd Route: MLB ANNEY4
Planned Altitude: 15,000ft
Origin Wx: KMCO 311153Z 20005KT 10SM SCT041 SCT100 BKN250 22/18 A2992 RMK AO2 SLP129 T02220183 10233 20211 53004
Dest. Wx: KMIA 311153Z 00000KT 10SM FEW020 FEW045 BKN250 24/22 A2997 RMK AO2 SLP149 T02390217 10244 20233 53004
Notes:

Financial History
Total Freight: 20,145lbs
Average Load: 6,715lbs/flt
Fuel Used: 2,366lbs
Avg. Fuel Used: 789lbs/flt
Fuel Expense: $2,437
Avg. Fuel Expense: $812
Avg. Fuel Cost: $1.03/lbs
Total Gross Income: $22,562
Pilot Pay: $447
Total Expenses: $2,593
Total Revenue: $16,903
Average Revenue: $7,520.80